��t_�N����	�S���n�������c�̃R�[�h	�s���{����	�s�撬����	���k����		
2020/2/1	430005	�F�{��	-	�W�v�͂S������J�n		
2020/2/2	430005	�F�{��	-			
2020/2/3	430005	�F�{��	-			
2020/2/4	430005	�F�{��	-	55		
2020/2/5	430005	�F�{��	-	34		
2020/2/6	430005	�F�{��	-	26		
2020/2/7	430005	�F�{��	-	25		
2020/2/8	430005	�F�{��	-	20		
2020/2/9	430005	�F�{��	-	5		
2020/2/10	430005	�F�{��	-	25		
2020/2/11	430005	�F�{��	-	6		
2020/2/12	430005	�F�{��	-	29		
2020/2/13	430005	�F�{��	-	25		
2020/2/14	430005	�F�{��	-	54		
2020/2/15	430005	�F�{��	-	40		
2020/2/16	430005	�F�{��	-	34		
2020/2/17	430005	�F�{��	-	77		
2020/2/18	430005	�F�{��	-	75		
2020/2/19	430005	�F�{��	-	81		
2020/2/20	430005	�F�{��	-	88		
2020/2/21	430005	�F�{��	-	139		
2020/2/22	430005	�F�{��	-	385		
2020/2/23	430005	�F�{��	-	286		
2020/2/24	430005	�F�{��	-	380		
2020/2/25	430005	�F�{��	-	660		
2020/2/26	430005	�F�{��	-	546		
2020/2/27	430005	�F�{��	-	534		
2020/2/28	430005	�F�{��	-	394		
2020/2/29	430005	�F�{��	-	281		
2020/3/1	430005	�F�{��	-	229		
2020/3/2	430005	�F�{��	-	411		
2020/3/3	430005	�F�{��	-	280		
2020/3/4	430005	�F�{��	-	277		
2020/3/5	430005	�F�{��	-	275		
2020/3/6	430005	�F�{��	-	301		
2020/3/7	430005	�F�{��	-	200		
2020/3/8	430005	�F�{��	-	164		
2020/3/9	430005	�F�{��	-	355		
2020/3/10	430005	�F�{��	-	241		
2020/3/11	430005	�F�{��	-	188		
2020/3/12	430005	�F�{��	-	190		
2020/3/13	430005	�F�{��	-	201		
2020/3/14	430005	�F�{��	-	143		
2020/3/15	430005	�F�{��	-	128		
2020/3/16	430005	�F�{��	-	215		
2020/3/17	430005	�F�{��	-	185		
2020/3/18	430005	�F�{��	-	204		
2020/3/19	430005	�F�{��	-	184		
2020/3/20	430005	�F�{��	-	139		
2020/3/21	430005	�F�{��	-	110		
2020/3/22	430005	�F�{��	-	109		
2020/3/23	430005	�F�{��	-	179		
2020/3/24	430005	�F�{��	-	151		
2020/3/25	430005	�F�{��	-	134		
2020/3/26	430005	�F�{��	-	146		
2020/3/27	430005	�F�{��	-	226		
2020/3/28	430005	�F�{��	-	156		
2020/3/29	430005	�F�{��	-	167		
2020/3/30	430005	�F�{��	-	314		
2020/3/31	430005	�F�{��	-	331		
2020/4/1	430005	�F�{��	-	399		
2020/4/2	430005	�F�{��	-	406		
2020/4/3	430005	�F�{��	-	395		
2020/4/4	430005	�F�{��	-	308		
2020/4/5	430005	�F�{��	-	331		
2020/4/6	430005	�F�{��	-	550		
2020/4/7	430005	�F�{��	-	402		
2020/4/8	430005	�F�{��	-	433		
2020/4/9	430005	�F�{��	-	463		
2020/4/10	430005	�F�{��	-	430		
2020/4/11	430005	�F�{��	-	343		
2020/4/12	430005	�F�{��	-	395		
2020/4/13	430005	�F�{��	-	629		
2020/4/14	430005	�F�{��	-	386		
2020/4/15	430005	�F�{��	-	463		
2020/4/16	430005	�F�{��	-	503		
2020/4/17	430005	�F�{��	-	487		
2020/4/18	430005	�F�{��	-	339		
2020/4/19	430005	�F�{��	-	275		
2020/4/20	430005	�F�{��	-	556		
2020/4/21	430005	�F�{��	-	394		
2020/4/22	430005	�F�{��	-	415		
2020/4/23	430005	�F�{��	-	446		
2020/4/24	430005	�F�{��	-	394		
2020/4/25	430005	�F�{��	-	287		
2020/4/26	430005	�F�{��	-	272		
2020/4/27	430005	�F�{��	-	421		
2020/4/28	430005	�F�{��	-	291		
2020/4/29	430005	�F�{��	-	233		
2020/4/30	430005	�F�{��	-	331		
2020/5/1	430005	�F�{��	-	272		
2020/5/2	430005	�F�{��	-	189		
2020/5/3	430005	�F�{��	-	240		
2020/5/4	430005	�F�{��	-	244		
2020/5/5	430005	�F�{��	-	217		
2020/5/6	430005	�F�{��	-	295		
2020/5/7	430005	�F�{��	-	331		
2020/5/8	430005	�F�{��	-	204		
2020/5/9	430005	�F�{��	-	237		
2020/5/10	430005	�F�{��	-	169		
2020/5/11	430005	�F�{��	-	279		
2020/5/12	430005	�F�{��	-	216		
2020/5/13	430005	�F�{��	-	171		
2020/5/14	430005	�F�{��	-	188		
2020/5/15	430005	�F�{��	-	172		
2020/5/16	430005	�F�{��	-	109		
2020/5/17	430005	�F�{��	-	96		
2020/5/18	430005	�F�{��	-	156		
2020/5/19	430005	�F�{��	-	91		
2020/5/20	430005	�F�{��	-	87		
2020/5/21	430005	�F�{��	-	96		
2020/5/22	430005	�F�{��	-	90		
2020/5/23	430005	�F�{��	-	70		
2020/5/24	430005	�F�{��	-	74		
2020/5/25	430005	�F�{��	-	150		
2020/5/26	430005	�F�{��	-	100		
2020/5/27	430005	�F�{��	-	89		
2020/5/28	430005	�F�{��	-	74		
2020/5/29	430005	�F�{��	-	105		
2020/5/30	430005	�F�{��	-	68		
2020/5/31	430005	�F�{��	-	91		
2020/6/1	430005	�F�{��	-	149		
2020/6/2	430005	�F�{��	-	108		
2020/6/3	430005	�F�{��	-	131		
2020/6/4	430005	�F�{��	-	133		
2020/6/5	430005	�F�{��	-	120		
2020/6/6	430005	�F�{��	-	86		
2020/6/7	430005	�F�{��	-	83		
2020/6/8	430005	�F�{��	-	134		
2020/6/9	430005	�F�{��	-	96		
2020/6/10	430005	�F�{��	-	105		
2020/6/11	430005	�F�{��	-	86		
2020/6/12	430005	�F�{��	-	77		
2020/6/13	430005	�F�{��	-	61		
2020/6/14	430005	�F�{��	-	60		
2020/6/15	430005	�F�{��	-	89		
2020/6/16	430005	�F�{��	-	67		
2020/6/17	430005	�F�{��	-	78		
2020/6/18	430005	�F�{��	-	91		
2020/6/19	430005	�F�{��	-	48		
2020/6/20	430005	�F�{��	-	52		
2020/6/21	430005	�F�{��	-	42		
2020/6/22	430005	�F�{��	-	80		
2020/6/23	430005	�F�{��	-	97		
2020/6/24	430005	�F�{��	-	117		
2020/6/25	430005	�F�{��	-	104		
2020/6/26	430005	�F�{��	-	78		
2020/6/27	430005	�F�{��	-	47		
2020/6/28	430005	�F�{��	-	55		
2020/6/29	430005	�F�{��	-	129		
2020/6/30	430005	�F�{��	-	96		
2020/7/1	430005	�F�{��	-	92		
2020/7/2	430005	�F�{��	-	75		
2020/7/3	430005	�F�{��	-	104		
2020/7/4	430005	�F�{��	-	72		
2020/7/5	430005	�F�{��	-	73		
2020/7/6	430005	�F�{��	-	122		
2020/7/7	430005	�F�{��	-	101		
2020/7/8	430005	�F�{��	-	103		
2020/7/9	430005	�F�{��	-	98		
2020/7/10	430005	�F�{��	-	91		
2020/7/11	430005	�F�{��	-	65		
2020/7/12	430005	�F�{��	-	45		
2020/7/13	430005	�F�{��	-	157		
2020/7/14	430005	�F�{��	-	112		
2020/7/15	430005	�F�{��	-	128		
2020/7/16	430005	�F�{��	-	125		
2020/7/17	430005	�F�{��	-	127		
2020/7/18	430005	�F�{��	-	88		
2020/7/19	430005	�F�{��	-	119		
2020/7/20	430005	�F�{��	-	172		
2020/7/21	430005	�F�{��	-	136		
2020/7/22	430005	�F�{��	-	175		
2020/7/23	430005	�F�{��	-	176		
2020/7/24	430005	�F�{��	-	201		
2020/7/25	430005	�F�{��	-	194		
2020/7/26	430005	�F�{��	-	233		
2020/7/27	430005	�F�{��	-	508		
2020/7/28	430005	�F�{��	-	484		
2020/7/29	430005	�F�{��	-	376		
2020/7/30	430005	�F�{��	-	423		
2020/7/31	430005	�F�{��	-	368		
2020/8/1	430005	�F�{��	-	260		
2020/8/2	430005	�F�{��	-	173		
2020/8/3	430005	�F�{��	-	141		
2020/8/4	430005	�F�{��	-	384		
2020/8/5	430005	�F�{��	-	459		
2020/8/6	430005	�F�{��	-	428		
2020/8/7	430005	�F�{��	-	350		
2020/8/8	430005	�F�{��	-	268		
2020/8/9	430005	�F�{��	-	211		
2020/8/10	430005	�F�{��	-	292		
2020/8/11	430005	�F�{��	-	284		
2020/8/12	430005	�F�{��	-	263		
2020/8/13	430005	�F�{��	-	298		
2020/8/14	430005	�F�{��	-	347		
2020/8/15	430005	�F�{��	-	254		
2020/8/16	430005	�F�{��	-	267		
2020/8/17	430005	�F�{��	-	427		
2020/8/18	430005	�F�{��	-	306		
2020/8/19	430005	�F�{��	-	277		
2020/8/20	430005	�F�{��	-	283		
2020/8/21	430005	�F�{��	-	254		
2020/8/22	430005	�F�{��	-	245		
2020/8/23	430005	�F�{��	-	154		
2020/8/24	430005	�F�{��	-	285		
2020/8/25	430005	�F�{��	-	253		
2020/8/26	430005	�F�{��	-	235		
2020/8/27	430005	�F�{��	-	251		
2020/8/28	430005	�F�{��	-	235		
2020/8/29	430005	�F�{��	-	170		
2020/8/30	430005	�F�{��	-	135		
2020/8/31	430005	�F�{��	-	328		
2020/9/1	430005	�F�{��	-	211		
2020/9/2	430005	�F�{��	-	226		
2020/9/3	430005	�F�{��	-	178		
2020/9/4	430005	�F�{��	-	124		
2020/9/5	430005	�F�{��	-	95		
2020/9/6	430005	�F�{��	-	96		
2020/9/7	430005	�F�{��	-	151		
2020/9/8	430005	�F�{��	-	130		 
2020/9/9	430005	�F�{��	-	215		
2020/9/10	430005	�F�{��	-	125		
2020/9/11	430005	�F�{��	-	155		
2020/9/12	430005	�F�{��	-	101		
2020/9/13	430005	�F�{��	-	136		
2020/9/14	430005	�F�{��	-	189		
2020/9/15	430005	�F�{��	-	128		
2020/9/16	430005	�F�{��	-	180		
2020/9/17	430005	�F�{��	-	115		
2020/9/18	430005	�F�{��	-	116		
2020/9/19	430005	�F�{��	-	89		
2020/9/20	430005	�F�{��	-	93		
2020/9/21	430005	�F�{��	-	76		
2020/9/22	430005	�F�{��	-	129		
2020/9/23	430005	�F�{��	-	171		
2020/9/24	430005	�F�{��	-	114		
2020/9/25	430005	�F�{��	-	89		
2020/9/26	430005	�F�{��	-	101		
2020/9/27	430005	�F�{��	-	77		
2020/9/28	430005	�F�{��	-	122		
2020/9/29	430005	�F�{��	-	119		
2020/9/30	430005	�F�{��	-	140		
2020/10/1	430005	�F�{��	-	105		
2020/10/2	430005	�F�{��	-	115		
2020/10/3	430005	�F�{��	-	108		
2020/10/4	430005	�F�{��	-	138		
2020/10/5	430005	�F�{��	-	217		
2020/10/6	430005	�F�{��	-	167		
2020/10/7	430005	�F�{��	-	158		
2020/10/8	430005	�F�{��	-	174		
2020/10/9	430005	�F�{��	-	159		
2020/10/10	430005	�F�{��	-	126		
2020/10/11	430005	�F�{��	-	107		
2020/10/12	430005	�F�{��	-	175		
2020/10/13	430005	�F�{��	-	149		
2020/10/14	430005	�F�{��	-	140		
2020/10/15	430005	�F�{��	-	145		
2020/10/16	430005	�F�{��	-	128		
2020/10/17	430005	�F�{��	-	80		
2020/10/18	430005	�F�{��	-	121		
2020/10/19	430005	�F�{��	-	163		
2020/10/20	430005	�F�{��	-	106		
2020/10/21	430005	�F�{��	-	118		
2020/10/22	430005	�F�{��	-	118		
2020/10/23	430005	�F�{��	-	91		
2020/10/24	430005	�F�{��	-	73		
2020/10/25	430005	�F�{��	-	62		
2020/10/26	430005	�F�{��	-	134		
2020/10/27	430005	�F�{��	-	112		
2020/10/28	430005	�F�{��	-	114		
2020/10/29	430005	�F�{��	-	76		
2020/10/30	430005	�F�{��	-	96		
2020/10/31	430005	�F�{��	-	79		
2020/11/1	430005	�F�{��	-	81		
2020/11/2	430005	�F�{��	-	113		
2020/11/3	430005	�F�{��	-	92		
2020/11/4	430005	�F�{��	-	142		
2020/11/5	430005	�F�{��	-	75		
2020/11/6	430005	�F�{��	-	140		
2020/11/7	430005	�F�{��	-	140		
2020/11/8	430005	�F�{��	-	119		
2020/11/9	430005	�F�{��	-	121		
2020/11/10	430005	�F�{��	-	79		
2020/11/11	430005	�F�{��	-	90		
2020/11/12	430005	�F�{��	-	101		
2020/11/13	430005	�F�{��	-	91		
2020/11/14	430005	�F�{��	-	82		
2020/11/15	430005	�F�{��	-	103		
2020/11/16	430005	�F�{��	-	161		
2020/11/17	430005	�F�{��	-	111		
2020/11/18	430005	�F�{��	-	132		
2020/11/19	430005	�F�{��	-	117		
2020/11/20	430005	�F�{��	-	78		
2020/11/21	430005	�F�{��	-	99		
2020/11/22	430005	�F�{��	-	106		
2020/11/23	430005	�F�{��	-	108		
2020/11/24	430005	�F�{��	-	104		
2020/11/25	430005	�F�{��	-	107		
2020/11/26	430005	�F�{��	-	84		
2020/11/27	430005	�F�{��	-	85		
2020/11/28	430005	�F�{��	-	111		
2020/11/29	430005	�F�{��	-	106		
2020/11/30	430005	�F�{��	-	76		
2020/12/1	430005	�F�{��	-	108		
2020/12/2	430005	�F�{��	-	135		
2020/12/3	430005	�F�{��	-	88		
2020/12/4	430005	�F�{��	-	106		
2020/12/5	430005	�F�{��	-	84		
2020/12/6	430005	�F�{��	-	95		
2020/12/7	430005	�F�{��	-	128		
2020/12/8	430005	�F�{��	-	136		
2020/12/9	430005	�F�{��	-	116		
2020/12/10	430005	�F�{��	-	159		
2020/12/11	430005	�F�{��	-	152		
2020/12/12	430005	�F�{��	-	129		
2020/12/13	430005	�F�{��	-	171	3��30���C��	
2020/12/14	430005	�F�{��	-	178		
2020/12/15	430005	�F�{��	-	155		
2020/12/16	430005	�F�{��	-	161		
2020/12/17	430005	�F�{��	-	161		
2020/12/18	430005	�F�{��	-	131		
2020/12/19	430005	�F�{��	-	151		
2020/12/20	430005	�F�{��	-	141		
2020/12/21	430005	�F�{��	-	191		
2020/12/22	430005	�F�{��	-	197		
2020/12/23	430005	�F�{��	-	191		
2020/12/24	430005	�F�{��	-	207		
2020/12/25	430005	�F�{��	-	181		
2020/12/26	430005	�F�{��	-	182		
2020/12/27	430005	�F�{��	-	230		
2020/12/28	430005	�F�{��	-	261	3��30���C��	
2020/12/29	430005	�F�{��	-	264	3��30���C��	
2020/12/30	430005	�F�{��	-	259		
2020/12/31	430005	�F�{��	-	208	3��30���C��	
2021/1/1	430005	�F�{��	-	402	3��30���C��	
2021/1/2	430005	�F�{��	-	410	3��30���C��	
2021/1/3	430005	�F�{��	-	391		
2021/1/4	430005	�F�{��	-	444	3��30���C��	
2021/1/5	430005	�F�{��	-	522		
2021/1/6	430005	�F�{��	-	478		
2021/1/7	430005	�F�{��	-	489		
2021/1/8	430005	�F�{��	-	507		
2021/1/9	430005	�F�{��	-	507		
2021/1/10	430005	�F�{��	-	511		
2021/1/11	430005	�F�{��	-	496		
2021/1/12	430005	�F�{��	-	477		
2021/1/13	430005	�F�{��	-	534		
2021/1/14	430005	�F�{��	-	474		
2021/1/15	430005	�F�{��	-	344		
2021/1/16	430005	�F�{��	-	428		
2021/1/17	430005	�F�{��	-	363		
2021/1/18	430005	�F�{��	-	418	3��30���C��	
2021/1/19	430005	�F�{��	-	409	3��30���C��	
2021/1/20	430005	�F�{��	-	344		
2021/1/21	430005	�F�{��	-	337	3��30���C��	
2021/1/22	430005	�F�{��	-	312	3��30���C��	
2021/1/23	430005	�F�{��	-	303	3��30���C��	
2021/1/24	430005	�F�{��	-	299		
2021/1/25	430005	�F�{��	-	327	3��30���C��	
2021/1/26	430005	�F�{��	-	330		
2021/1/27	430005	�F�{��	-	328	3��30���C��	
2021/1/28	430005	�F�{��	-	215	3��30���C��	
2021/1/29	430005	�F�{��	-	219		
2021/1/30	430005	�F�{��	-	237	3��30���C��	
2021/1/31	430005	�F�{��	-	202	3��30���C��	
2021/2/1	430005	�F�{��	-	247	3��30���C��	
2021/2/2	430005	�F�{��	-	257	3��30���C��	
2021/2/3	430005	�F�{��	-	215	3��30���C��	
2021/2/4	430005	�F�{��	-	200	3��30���C��	
2021/2/5	430005	�F�{��	-	177		
2021/2/6	430005	�F�{��	-	198	3��30���C��	
2021/2/7	430005	�F�{��	-	204	3��30���C��	
2021/2/8	430005	�F�{��	-	149		
2021/2/9	430005	�F�{��	-	162		
2021/2/10	430005	�F�{��	-	153		
2021/2/11	430005	�F�{��	-	178		
2021/2/12	430005	�F�{��	-	146		
2021/2/13	430005	�F�{��	-	119		
2021/2/14	430005	�F�{��	-	196		
2021/2/15	430005	�F�{��	-	144		
2021/2/16	430005	�F�{��	-	173		
2021/2/17	430005	�F�{��	-	163		
2021/2/18	430005	�F�{��	-	115		
2021/2/19	430005	�F�{��	-	170		
2021/2/20	430005	�F�{��	-	166		
2021/2/21	430005	�F�{��	-	177		
2021/2/22	430005	�F�{��	-	144		
2021/2/23	430005	�F�{��	-	207		
2021/2/24	430005	�F�{��	-	130		
2021/2/25	430005	�F�{��	-	84		
2021/2/26	430005	�F�{��	-	79		
2021/2/27	430005	�F�{��	-	88		
2021/2/28	430005	�F�{��	-	99		
2021/3/1	430005	�F�{��	-	101		
2021/3/2	430005	�F�{��	-	72		
2021/3/3	430005	�F�{��	-	83		
2021/3/4	430005	�F�{��	-	100		
2021/3/5	430005	�F�{��	-	81		
2021/3/6	430005	�F�{��	-	91		
2021/3/7	430005	�F�{��	-	116		
2021/3/8	430005	�F�{��	-	90		
2021/3/9	430005	�F�{��	-	135		
2021/3/10	430005	�F�{��	-	94		
2021/3/11	430005	�F�{��	-	64		
2021/3/12	430005	�F�{��	-	109		
2021/3/13	430005	�F�{��	-	85		
2021/3/14	430005	�F�{��	-	94		
2021/3/15	430005	�F�{��	-	100		
2021/3/16	430005	�F�{��	-	124		
2021/3/17	430005	�F�{��	-	117		
2021/3/18	430005	�F�{��	-	98		
2021/3/19	430005	�F�{��	-	109		
2021/3/20	430005	�F�{��	-	174		
2021/3/21	430005	�F�{��	-	133		
2021/3/22	430005	�F�{��	-	83		
2021/3/23	430005	�F�{��	-	137		
2021/3/24	430005	�F�{��	-	124		
2021/3/25	430005	�F�{��	-	121		
2021/3/26	430005	�F�{��	-	133		
2021/3/27	430005	�F�{��	-	120		
2021/3/28	430005	�F�{��	-	126		
2021/3/29	430005	�F�{��	-	127		
2021/3/30	430005	�F�{��	-	139		
2021/3/31	430005	�F�{��	-	147		
2021/4/1	430005	�F�{��	-	119		
2021/4/2	430005	�F�{��	-	136		
2021/4/3	430005	�F�{��	-	171		
2021/4/4	430005	�F�{��	-	162		
2021/4/5	430005	�F�{��	-	96		
2021/4/6	430005	�F�{��	-	120		
2021/4/7	430005	�F�{��	-	123		
2021/4/8	430005	�F�{��	-	103		
2021/4/9	430005	�F�{��	-	108		
2021/4/10	430005	�F�{��	-	129		
2021/4/11	430005	�F�{��	-	179		
2021/4/12	430005	�F�{��	-	124		
2021/4/13	430005	�F�{��	-	155		
2021/4/14	430005	�F�{��	-	191		
2021/4/15	430005	�F�{��	-	126		
2021/4/16	430005	�F�{��	-	187		
2021/4/17	430005	�F�{��	-	234		
2021/4/18	430005	�F�{��	-	207		
2021/4/19	430005	�F�{��	-	243		
2021/4/20	430005	�F�{��	-	287		
2021/4/21	430005	�F�{��	-	267		
2021/4/22	430005	�F�{��	-	280		
2021/4/23	430005	�F�{��	-	288		
2021/4/24	430005	�F�{��	-	278		
2021/4/25	430005	�F�{��	-	358		
2021/4/26	430005	�F�{��	-	302		
2021/4/27	430005	�F�{��	-	432		
2021/4/28	430005	�F�{��	-	386		
2021/4/29	430005	�F�{��	-	404		
2021/4/30	430005	�F�{��	-	280		
2021/5/1	430005	�F�{��	-	394		
2021/5/2	430005	�F�{��	-	456		
2021/5/3	430005	�F�{��	-	374		
2021/5/4	430005	�F�{��	-	413		
2021/5/5	430005	�F�{��	-	528		
2021/5/6	430005	�F�{��	-	464		
2021/5/7	430005	�F�{��	-	516		
2021/5/8	430005	�F�{��	-	597		
2021/5/9	430005	�F�{��	-	630		
2021/5/10	430005	�F�{��	-	557		
2021/5/11	430005	�F�{��	-	582		
2021/5/12	430005	�F�{��	-	554		
2021/5/13	430005	�F�{��	-	441		
2021/5/14	430005	�F�{��	-	437		
2021/5/15	430005	�F�{��	-	451		
2021/5/16	430005	�F�{��	-	478		
2021/5/17	430005	�F�{��	-	394		
2021/5/18	430005	�F�{��	-	322		
2021/5/19	430005	�F�{��	-	360		
2021/5/20	430005	�F�{��	-	276		
2021/5/21	430005	�F�{��	-	305		
2021/5/22	430005	�F�{��	-	296		
2021/5/23	430005	�F�{��	-	302		
2021/5/24	430005	�F�{��	-	271		
2021/5/25	430005	�F�{��	-	250		
2021/5/26	430005	�F�{��	-	286		
2021/5/27	430005	�F�{��	-	230		
2021/5/28	430005	�F�{��	-	211		
2021/5/29	430005	�F�{��	-	184		
2021/5/30	430005	�F�{��	-	294		
2021/5/31	430005	�F�{��	-	214		
2021/6/1	430005	�F�{��	-	263		
2021/6/2	430005	�F�{��	-	216		
2021/6/3	430005	�F�{��	-	167		
2021/6/4	430005	�F�{��	-	169		
2021/6/5	430005	�F�{��	-	150		
2021/6/6	430005	�F�{��	-	173		
2021/6/7	430005	�F�{��	-	134		
2021/6/8	430005	�F�{��	-	142		
2021/6/9	430005	�F�{��	-	130		
2021/6/10	430005	�F�{��	-	122		
2021/6/11	430005	�F�{��	-	96		
2021/6/12	430005	�F�{��	-	125		
2021/6/13	430005	�F�{��	-	140		
2021/6/14	430005	�F�{��	-	131		
2021/6/15	430005	�F�{��	-	103		
2021/6/16	430005	�F�{��	-	129		
2021/6/17	430005	�F�{��	-	96		
2021/6/18	430005	�F�{��	-	82		
2021/6/19	430005	�F�{��	-	142		
2021/6/20	430005	�F�{��	-	131		
2021/6/21	430005	�F�{��	-	99		
2021/6/22	430005	�F�{��	-	124		
2021/6/23	430005	�F�{��	-	88		
2021/6/24	430005	�F�{��	-	113		
2021/6/25	430005	�F�{��	-	99		
2021/6/26	430005	�F�{��	-	140		
2021/6/27	430005	�F�{��	-	127		
2021/6/28	430005	�F�{��	-	88		
2021/6/29	430005	�F�{��	-	124		
2021/6/30	430005	�F�{��	-	107		
2021/7/1	430005	�F�{��	-	94		
2021/7/2	430005	�F�{��	-	77		
2021/7/3	430005	�F�{��	-	121		
2021/7/4	430005	�F�{��	-	118		
2021/7/5	430005	�F�{��	-	91		
2021/7/6	430005	�F�{��	-	87		
2021/7/7	430005	�F�{��	-	118		
2021/7/8	430005	�F�{��	-	78		
2021/7/9	430005	�F�{��	-	83		
2021/7/10	430005	�F�{��	-	106		
2021/7/11	430005	�F�{��	-	114		
2021/7/12	430005	�F�{��	-	85		
2021/7/13	430005	�F�{��	-	94		
2021/7/14	430005	�F�{��	-	85		
2021/7/15	430005	�F�{��	-	83		
2021/7/16	430005	�F�{��	-	95		
2021/7/17	430005	�F�{��	-	111		
2021/7/18	430005	�F�{��	-	146		
2021/7/19	430005	�F�{��	-	128		
2021/7/20	430005	�F�{��	-	136		
2021/7/21	430005	�F�{��	-	151		
2021/7/22	430005	�F�{��	-	225		
2021/7/23	430005	�F�{��	-	208		
2021/7/24	430005	�F�{��	-	222		
2021/7/25	430005	�F�{��	-	296		
2021/7/26	430005	�F�{��	-	225		
2021/7/27	430005	�F�{��	-	218		
2021/7/28	430005	�F�{��	-	268		
2021/7/29	430005	�F�{��	-	231		
2021/7/30	430005	�F�{��	-	255		
2021/7/31	430005	�F�{��	-	380		
2021/8/1	430005	�F�{��	-	16		
2021/8/2	430005	�F�{��	-	362		
2021/8/3	430005	�F�{��	-	367		
2021/8/4	430005	�F�{��	-	406		
2021/8/5	430005	�F�{��	-	367		
2021/8/6	430005	�F�{��	-	403		
2021/8/7	430005	�F�{��	-	386		
2021/8/8	430005	�F�{��	-	448		
2021/8/9	430005	�F�{��	-	563		
2021/8/10	430005	�F�{��	-	471		
2021/8/11	430005	�F�{��	-	405		
2021/8/12	430005	�F�{��	-	469		
2021/8/13	430005	�F�{��	-	462		
2021/8/14	430005	�F�{��	-	592		
2021/8/15	430005	�F�{��	-	580		
2021/8/16	430005	�F�{��	-	498		
2021/8/17	430005	�F�{��	-	579		
2021/8/18	430005	�F�{��	-	622		
2021/8/19	430005	�F�{��	-	655		
2021/8/20	430005	�F�{��	-	552		
2021/8/21	430005	�F�{��	-	601		
2021/8/22	430005	�F�{��	-	614		
2021/8/23	430005	�F�{��	-	519		
2021/8/24	430005	�F�{��	-	501		
2021/8/25	430005	�F�{��	-	555		
2021/8/26	430005	�F�{��	-	513		
2021/8/27	430005	�F�{��	-	497		
2021/8/28	430005	�F�{��	-	469		
2021/8/29	430005	�F�{��	-	472		
2021/8/30	430005	�F�{��	-	423		
2021/8/31	430005	�F�{��	-	384		
2021/9/1	430005	�F�{��	-	369		
2021/9/2	430005	�F�{��	-	414		
2021/9/3	430005	�F�{��	-	346		
2021/9/4	430005	�F�{��	-	322		
2021/9/5	430005	�F�{��	-	311		
2021/9/6	430005	�F�{��	-	374		
2021/9/7	430005	�F�{��	-	303		
2021/9/8	430005	�F�{��	-	276		
2021/9/9	430005	�F�{��	-	240		
2021/9/10	430005	�F�{��	-	228		
2021/9/11	430005	�F�{��	-	256		
2021/9/12	430005	�F�{��	-	271		
2021/9/13	430005	�F�{��	-	268		
2021/9/14	430005	�F�{��	-	174		
2021/9/15	430005	�F�{��	-	191		
2021/9/16	430005	�F�{��	-	147		
2021/9/17	430005	�F�{��	-	170		
2021/9/18	430005	�F�{��	-	194		
2021/9/19	430005	�F�{��	-	223		
2021/9/20	430005	�F�{��	-	206		
2021/9/21	430005	�F�{��	-	194		
2021/9/22	430005	�F�{��	-	154		
2021/9/23	430005	�F�{��	-	187		
2021/9/24	430005	�F�{��	-	198		
2021/9/25	430005	�F�{��	-	135		
2021/9/26	430005	�F�{��	-	198		
2021/9/27	430005	�F�{��	-	86		
2021/9/28	430005	�F�{��	-	139		
2021/9/29	430005	�F�{��	-	126		
2021/9/30	430005	�F�{��	-	116		
2021/10/1	430005	�F�{��	-	123		
2021/10/2	430005	�F�{��	-	109		
2021/10/3	430005	�F�{��	-	120		
2021/10/4	430005	�F�{��	-	88		
2021/10/5	430005	�F�{��	-	118		
2021/10/6	430005	�F�{��	-	96		
2021/10/7	430005	�F�{��	-	106		
2021/10/8	430005	�F�{��	-	100		
2021/10/9	430005	�F�{��	-	110		
2021/10/10	430005	�F�{��	-	87		
2021/10/11	430005	�F�{��	-	97		
2021/10/12	430005	�F�{��	-	106		
2021/10/13	430005	�F�{��	-	105		
2021/10/14	430005	�F�{��	-	70		
2021/10/15	430005	�F�{��	-	103		
2021/10/16	430005	�F�{��	-	129		
2021/10/17	430005	�F�{��	-	93		
2021/10/18	430005	�F�{��	-	89		
2021/10/19	430005	�F�{��	-	107		
2021/10/20	430005	�F�{��	-	76		
2021/10/21	430005	�F�{��	-	66		
2021/10/22	430005	�F�{��	-	75		
2021/10/23	430005	�F�{��	-	81		
2021/10/24	430005	�F�{��	-	110		
2021/10/25	430005	�F�{��	-	70		
2021/10/26	430005	�F�{��	-	79		
2021/10/27	430005	�F�{��	-	68		
2021/10/28	430005	�F�{��	-	44		
2021/10/29	430005	�F�{��	-	46		
2021/10/30	430005	�F�{��	-	96		
2021/10/31	430005	�F�{��	-	102		
2021/11/1	430005	�F�{��	-	68		
2021/11/2	430005	�F�{��	-	100		
2021/11/3	430005	�F�{��	-	96		
2021/11/4	430005	�F�{��	-	44		
2021/11/5	430005	�F�{��	-	41		
2021/11/6	430005	�F�{��	-	61		
2021/11/7	430005	�F�{��	-	50		
2021/11/8	430005	�F�{��	-	60		
2021/11/9	430005	�F�{��	-	67		
2021/11/10	430005	�F�{��	-	47		
2021/11/11	430005	�F�{��	-	40		
2021/11/12	430005	�F�{��	-	54		
2021/11/13	430005	�F�{��	-	66		
2021/11/14	430005	�F�{��	-	60		
2021/11/15	430005	�F�{��	-	33		
2021/11/16	430005	�F�{��	-	59		
2021/11/17	430005	�F�{��	-	74		
2021/11/18	430005	�F�{��	-	49		
2021/11/19	430005	�F�{��	-	79		
2021/11/20	430005	�F�{��	-	67		
2021/11/21	430005	�F�{��	-	53		
2021/11/22	430005	�F�{��	-	35		
2021/11/23	430005	�F�{��	-	61		
2021/11/24	430005	�F�{��	-	60		
2021/11/25	430005	�F�{��	-	36		
2021/11/26	430005	�F�{��	-	53		
2021/11/27	430005	�F�{��	-	53		
2021/11/28	430005	�F�{��	-	56		
2021/11/29	430005	�F�{��	-	42		
2021/11/30	430005	�F�{��	-	55		
2021/12/1	430005	�F�{��	-	54		
2021/12/2	430005	�F�{��	-	45		
2021/12/3	430005	�F�{��	-	48		
2021/12/4	430005	�F�{��	-	42		
2021/12/5	430005	�F�{��	-	63		
2021/12/6	430005	�F�{��	-	37		
2021/12/7	430005	�F�{��	-	50		
2021/12/8	430005	�F�{��	-	57		
2021/12/9	430005	�F�{��	-	26		
2021/12/10	430005	�F�{��	-	30		
2021/12/11	430005	�F�{��	-	39		
2021/12/12	430005	�F�{��	-	60		
2021/12/13	430005	�F�{��	-	26		
2021/12/14	430005	�F�{��	-	58		
2021/12/15	430005	�F�{��	-	42		
2021/12/16	430005	�F�{��	-	38		
2021/12/17	430005	�F�{��	-	54		
2021/12/18	430005	�F�{��	-	59		
2021/12/19	430005	�F�{��	-	71		
2021/12/20	430005	�F�{��	-	41		
2021/12/21	430005	�F�{��	-	58		
2021/12/22	430005	�F�{��	-	40		
2021/12/23	430005	�F�{��	-	29		
2021/12/24	430005	�F�{��	-	58		
2021/12/25	430005	�F�{��	-	52		
2021/12/26	430005	�F�{��	-	75		
2021/12/27	430005	�F�{��	-	41		
2021/12/28	430005	�F�{��	-	48		
2021/12/29	430005	�F�{��	-	59		
2021/12/30	430005	�F�{��	-	60		
2021/12/31	430005	�F�{��	-	3		
2022/1/1	430005	�F�{��	-	78		
2022/1/2	430005	�F�{��	-	95		
2022/1/3	430005	�F�{��	-	101		
2022/1/4	430005	�F�{��	-	124		
2022/1/5	430005	�F�{��	-	151		
2022/1/6	430005	�F�{��	-	191		
2022/1/7	430005	�F�{��	-	237		
2022/1/8	430005	�F�{��	-	295		
2022/1/9	430005	�F�{��	-	332		
2022/1/10	430005	�F�{��	-	401		
2022/1/11	430005	�F�{��	-	494		
2022/1/12	430005	�F�{��	-	644		
2022/1/13	430005	�F�{��	-	741		
2022/1/14	430005	�F�{��	-	620		
2022/1/15	430005	�F�{��	-	655		
2022/1/16	430005	�F�{��	-	800		
2022/1/17	430005	�F�{��	-	718		
2022/1/18	430005	�F�{��	-	708		
2022/1/19	430005	�F�{��	-	804		
2022/1/20	430005	�F�{��	-	730		
2022/1/21	430005	�F�{��	-	683		
2022/1/22	430005	�F�{��	-	660		
2022/1/23	430006	�F�{��	-	734		
2022/1/24	430005	�F�{��	-	794		